Dewpoint
53 46 46 54 59 54 31 29 14 18 17 13 13 11 11 16 22 12 19 29 32 48 55 53 51 51 47 47 48 52 58 50 51 40 42 62 67 65 65 66 67 67 67 68 68 69 72 72 72 71 71 70 70 70 70 70 71 72 72 72 73 72 72 72 72 72 72 72 72 72 72 72 72 71 71 71 71 72 72 71 69 68 67 67 68 65 65 66 66 66 66 66 67 67 67 68 68
49 43 43 51 52 26 22 24 19 18 16 13 11 14 12 13 15 11 16 28 35 52 57 57 58 58 57 58 60 60 59 61 62 59 64 65 65 65 66 66 66 65 67 68 68 69 70 71 71 71 70 70 70 70 70 71 71 72 72 72 72 73 73 72 72 72 72 73 72 73 73 72 72 72 72 72 72 71 71 71 70 69 69 69 68 67 66 66 67 67 67 67 67 67 68 68 68
43 40 37 35 32 24 23 21 13 17 16 12 11 12 16 10 10 12 17 27 39 55 57 56 56 55 55 56 54 53 49 63 62 63 64 64 62 64 66 67 66 66 67 68 68 69 70 70 71 71 70 70 70 70 71 72 72 72 72 72 73 73 73 73 72 72 72 72 72 72 72 72 72 72 72 72 72 71 71 71 71 69 69 69 67 67 66 68 68 68 68 68 68 68 68 68 68
41 45 37 31 31 27 38 27 19 15 12 11 12 12 14 12 11 12 17 32 50 56 54 52 50 57 54 51 56 61 61 62 62 63 64 63 62 65 67 67 68 67 68 68 68 68 70 71 71 71 70 70 70 71 72 72 72 72 72 73 73 73 73 72 72 72 72 72 72 72 72 72 72 72 72 72 72 72 71 70 69 70 69 69 69 69 68 69 68 69 68 68 68 69 68 68 68
36 38 36 25 28 32 25 20 18 16 12 13 10 13 17 13 12 13 16 51 56 53 54 54 53 59 61 59 59 54 59 63 63 65 64 64 65 66 67 67 67 66 67 68 68 69 69 70 71 71 70 70 70 71 72 72 72 72 72 72 73 72 72 72 72 72 72 72 72 72 71 72 72 71 72 72 72 71 70 70 69 69 69 69 69 69 69 69 69 69 69 69 69 69 68 68 68
35 29 33 29 33 27 22 18 18 13 13 14 10 11 13 13 13 13 13 45 55 52 54 53 51 54 59 61 62 60 63 63 64 64 65 64 66 67 66 67 66 66 66 69 69 70 69 71 71 71 71 70 71 72 72 72 72 72 73 72 73 72 72 72 72 72 72 72 71 72 71 71 71 71 71 71 71 71 70 69 69 69 69 69 69 69 69 70 70 69 70 69 69 68 68 68 69
29 28 27 22 27 27 30 23 14 12 12 14 11 12 13 13 13 14 14 26 49 53 52 53 59 56 57 62 62 64 64 64 64 64 64 65 66 66 67 66 66 66 67 67 69 69 68 71 71 71 71 71 71 72 72 72 72 73 73 72 72 72 72 72 72 72 72 72 71 71 71 71 71 70 70 70 70 70 70 69 69 69 70 69 69 69 69 69 69 69 69 70 69 69 69 69 69
38 30 26 29 20 23 21 19 16 13 12 13 14 13 14 14 14 14 13 12 22 43 49 57 57 47 56 63 59 63 65 65 65 66 66 66 66 66 66 66 66 66 65 68 70 70 71 71 71 71 71 71 72 72 73 72 73 73 72 72 72 72 72 72 72 72 72 71 71 70 70 70 70 69 69 69 68 69 69 69 69 69 69 69 69 69 69 69 69 69 69 69 69 69 70 69 69
29 25 26 18 17 19 18 15 13 15 14 14 14 18 35 17 16 14 12 14 14 33 51 55 56 42 57 60 59 63 64 66 66 67 66 66 66 66 65 65 65 65 64 66 69 70 70 71 71 71 71 72 72 73 73 73 73 73 73 73 72 72 72 72 72 71 71 70 70 70 69 69 69 69 69 69 68 68 68 67 67 68 68 68 69 69 69 69 69 69 69 70 70 70 70 70 70
24 22 31 23 18 15 12 12 14 13 12 13 12 13 15 19 16 14 12 11 14 40 54 58 56 51 60 58 60 63 64 66 66 66 66 66 66 65 65 64 64 64 64 67 69 70 69 71 71 71 71 72 72 73 73 73 73 73 73 73 72 72 72 71 71 71 70 70 70 70 69 69 68 68 68 67 67 67 67 67 67 67 68 68 68 69 68 69 69 69 69 70 70 70 70 70 70
19 19 21 18 17 16 13 13 13 12 12 14 14 14 14 13 13 13 13 10 32 36 58 59 54 59 59 60 63 64 65 65 65 65 66 66 65 65 64 65 65 65 66 68 69 69 69 70 71 71 72 72 73 73 73 73 73 73 73 72 72 72 72 71 71 70 70 70 69 68 68 67 67 67 67 67 66 66 66 67 67 67 67 68 68 68 68 69 69 69 69 69 69 70 70 70 70
20 20 16 18 16 14 13 13 14 13 14 15 12 14 14 14 14 12 11 13 23 49 50 57 52 61 58 60 61 64 65 65 65 66 66 66 65 65 65 66 66 66 67 68 68 68 69 69 69 71 72 73 73 73 73 73 73 73 72 72 72 72 71 71 71 71 70 70 69 69 68 68 67 66 66 66 66 66 66 66 66 66 67 67 68 69 68 68 68 69 69 68 69 69 69 69 69
17 18 17 16 16 13 16 13 12 23 21 13 12 15 14 12 10 10 12 38 48 49 48 57 60 59 58 59 62 64 64 65 66 66 66 65 65 64 65 65 65 66 67 68 67 68 69 68 67 70 71 73 73 73 73 73 73 72 72 72 72 71 71 71 71 70 70 70 69 69 69 69 69 68 68 66 66 66 66 66 66 66 67 68 68 68 68 68 68 69 69 68 69 69 68 69 69
19 19 17 14 14 12 12 13 12 12 11 14 15 17 16 12 11 11 43 47 53 51 58 59 61 60 61 59 62 62 63 65 65 66 65 65 65 64 64 65 66 66 67 67 67 67 68 69 70 71 72 73 73 73 73 72 72 72 72 72 71 71 71 71 70 71 70 70 70 69 69 69 69 68 68 67 67 67 66 66 66 67 68 67 67 68 68 68 68 68 67 67 68 69 68 69 68
20 22 23 20 15 14 13 12 11 11 11 13 15 14 19 48 39 43 40 50 55 60 62 63 61 53 54 55 59 62 63 64 65 65 65 65 65 64 64 65 66 66 66 68 67 66 67 70 70 71 71 71 72 72 73 73 72 72 72 71 71 71 71 71 71 70 70 70 70 69 68 68 69 69 68 68 67 67 68 67 67 67 67 67 67 67 67 67 67 67 68 69 69 69 69 69 67
24 18 23 17 14 12 11 12 13 11 12 12 19 16 42 49 59 55 58 56 58 62 61 57 61 55 60 54 60 62 63 64 65 65 65 64 64 64 64 65 65 66 66 67 67 67 68 70 70 70 71 71 72 72 72 72 72 72 72 71 71 71 71 71 71 70 70 69 69 69 70 70 69 70 70 68 68 69 68 66 67 67 67 67 68 67 68 69 69 69 69 69 70 70 70 68 66
24 22 18 19 13 12 11 11 11 10 12 12 13 12 11 27 59 61 61 58 58 60 60 62 59 63 60 58 61 63 64 65 65 64 64 63 63 62 63 63 64 65 66 67 67 67 69 70 70 69 70 71 71 71 72 72 72 72 71 71 70 70 70 70 70 70 69 70 69 70 70 69 69 69 68 67 68 68 68 68 68 68 68 68 69 69 69 69 69 70 69 70 70 70 69 68 67
22 19 17 16 13 11 12 11 11 13 11 11 12 12 12 30 57 59 59 60 61 61 61 62 63 63 63 63 63 64 64 64 64 63 62 62 62 60 60 61 62 62 63 64 67 68 69 69 69 70 70 71 71 71 71 72 72 71 70 70 70 70 70 70 70 70 69 69 71 69 69 68 68 68 69 69 68 69 69 68 68 68 69 69 69 69 70 70 70 69 69 69 70 69 69 68 68
17 23 19 12 13 12 13 12 12 11 11 12 12 14 12 12 52 58 54 58 59 59 59 62 61 62 63 63 63 63 64 64 64 64 62 61 60 61 61 61 61 62 62 64 66 68 68 68 69 70 70 70 71 70 70 71 70 70 69 69 70 70 70 69 69 69 68 68 68 68 68 69 69 68 70 70 71 68 70 69 69 69 69 70 70 70 70 70 69 69 69 69 68 69 68 66 65
21 21 15 13 13 12 14 13 12 12 13 13 13 11 10 21 54 59 54 57 59 55 57 60 61 61 62 63 63 63 64 63 64 63 61 61 61 61 62 61 61 61 62 63 65 67 67 68 69 69 70 71 70 69 70 70 70 69 69 69 69 69 69 68 68 68 68 69 68 69 69 69 70 70 69 70 70 70 69 70 70 70 70 69 70 70 69 69 68 68 68 68 68 67 67 65 63
19 17 13 12 14 12 12 13 13 12 13 13 13 11 9 14 45 53 58 56 57 57 59 57 59 61 62 62 62 63 63 63 63 63 62 61 62 63 62 62 61 62 63 64 66 67 67 69 69 70 70 71 70 70 69 69 70 69 69 69 69 69 68 68 68 68 69 69 69 70 69 70 70 70 70 70 70 70 69 69 70 69 70 69 68 69 69 67 68 66 67 68 67 67 66 67 67
19 16 15 15 15 12 14 13 13 12 14 12 12 9 9 49 51 54 54 37 40 53 55 59 58 61 62 62 62 63 63 63 63 62 62 63 62 62 62 62 64 64 65 64 65 67 67 68 69 69 70 70 70 69 69 69 70 68 68 69 68 68 67 67 68 68 68 69 69 69 69 69 70 70 70 70 70 70 70 70 69 70 70 70 69 68 67 68 67 66 66 66 66 67 67 67 67
13 18 18 19 16 13 16 15 13 11 10 10 10 14 50 51 53 56 53 34 41 56 59 59 61 62 62 63 63 63 63 63 62 62 62 62 63 62 63 62 62 63 64 64 65 66 67 69 69 69 69 69 69 70 70 69 69 68 69 69 68 67 68 67 67 67 68 69 70 70 70 69 69 70 70 70 69 69 70 69 70 70 70 69 70 68 68 69 67 67 66 67 66 65 65 66 66
18 12 21 18 18 14 18 15 16 12 10 10 10 36 37 47 40 58 56 53 59 61 62 61 61 63 63 62 63 63 63 63 63 62 63 62 63 63 63 62 63 64 63 65 65 66 67 67 69 69 69 69 69 70 70 69 69 68 68 68 68 68 67 67 67 67 69 69 70 70 70 69 70 69 68 69 69 69 69 70 70 70 70 70 70 70 68 69 68 67 68 66 65 65 64 66 65
16 15 20 20 17 17 17 16 14 14 13 12 11 9 16 47 34 60 56 57 60 62 62 62 62 63 63 63 63 63 63 63 63 63 63 61 63 63 63 63 64 63 63 64 65 66 66 68 68 68 68 69 69 69 69 69 69 68 68 68 67 68 68 68 69 70 69 69 70 70 70 70 69 69 70 69 68 70 70 70 70 69 70 70 70 69 69 69 67 67 67 66 66 66 65 66 64
17 17 20 20 19 18 17 17 16 13 13 12 14 31 56 50 58 53 56 60 62 63 62 62 64 63 62 62 63 63 63 63 64 63 63 63 63 63 63 63 63 63 63 64 65 65 66 67 68 67 68 69 69 69 69 68 68 68 68 68 68 68 68 69 69 68 69 70 69 70 70 69 69 69 68 68 70 70 70 70 69 70 69 71 70 69 69 67 67 66 66 66 64 65 65 65 64
18 17 18 20 20 18 18 17 17 14 14 12 12 53 56 58 49 30 62 62 62 63 63 64 63 62 62 63 63 64 63 64 64 64 63 64 63 62 63 63 63 63 64 65 64 65 67 67 67 68 69 69 69 68 69 68 68 68 68 69 68 69 69 69 69 69 69 69 69 70 69 69 69 68 67 69 69 69 69 69 69 69 69 69 69 69 69 68 68 67 66 66 65 64 64 64 63
19 18 17 17 18 19 19 17 18 16 16 13 21 51 58 56 49 35 55 62 64 64 63 62 62 62 61 62 63 64 64 64 63 64 63 63 62 62 63 63 63 63 64 64 64 66 67 67 67 68 68 69 69 68 68 68 68 68 69 69 68 69 69 68 69 69 69 69 69 69 69 69 69 69 69 69 69 68 68 68 68 68 68 68 69 68 68 68 67 66 66 66 66 65 64 63 64
18 19 16 17 17 16 17 18 18 17 16 14 30 39 48 53 45 43 59 62 63 63 63 62 62 62 61 62 63 63 63 63 63 63 64 63 64 63 63 64 64 64 63 64 65 66 66 67 67 68 68 69 69 68 68 68 68 68 68 68 69 69 69 69 69 68 68 69 69 69 68 68 68 68 69 69 68 67 68 69 68 68 68 68 68 68 68 68 67 66 66 66 64 64 64 64 63
17 18 15 16 16 14 15 17 18 15 16 14 20 10 10 46 47 56 62 62 62 62 61 61 61 62 62 62 62 63 64 63 63 63 63 64 64 64 64 64 64 64 63 64 66 66 66 67 68 68 69 68 68 69 68 68 68 68 68 68 68 68 68 69 68 68 68 68 68 69 69 69 68 69 68 70 68 68 68 68 68 67 68 67 67 67 66 66 65 65 65 63 63 63 62 63 62
14 15 15 13 14 13 15 15 16 16 16 19 16 8 9 31 50 61 61 63 62 60 60 61 61 61 61 62 62 63 64 64 64 64 65 65 65 64 64 65 64 64 64 65 66 66 67 67 67 68 69 69 68 68 68 68 68 68 68 67 68 68 67 68 68 67 68 68 68 68 69 69 68 68 68 69 68 67 67 67 67 66 66 66 65 65 65 64 64 64 63 63 63 62 61 61 62
16 12 11 10 8 11 16 17 15 15 15 23 15 12 12 21 42 60 61 61 62 59 60 60 61 61 61 62 62 62 63 63 64 64 65 65 65 64 64 64 64 64 64 65 66 66 67 67 67 67 68 67 68 68 68 67 67 67 67 67 67 67 67 67 67 67 68 68 68 68 67 68 68 68 68 68 67 67 66 66 66 66 66 64 64 65 64 63 63 63 63 63 62 61 60 60 60
16 9 13 10 8 8 10 16 15 15 14 21 14 9 26 25 46 59 61 60 60 59 59 60 61 61 61 61 62 62 62 62 63 64 64 64 65 65 64 64 64 65 65 66 65 66 68 67 67 67 67 68 67 67 67 67 67 67 67 67 67 67 67 67 67 67 67 68 68 68 68 68 67 67 67 67 67 66 65 65 64 64 65 63 64 64 62 62 63 62 62 61 61 60 59 59 59
15 12 10 12 9 8 3 12 15 14 14 15 19 15 29 46 48 58 60 60 59 57 58 59 60 60 60 61 61 61 62 62 62 63 63 64 64 65 65 65 65 65 65 66 66 66 66 67 67 67 66 66 67 66 67 67 66 66 66 67 67 66 66 67 67 67 67 67 67 67 67 66 66 66 66 66 66 65 64 63 63 64 63 63 62 62 62 62 62 63 61 61 59 60 57 58 58
16 16 14 12 11 9 4 5 12 14 12 11 17 15 21 49 52 57 58 60 58 57 57 58 58 59 60 60 61 61 61 61 62 63 63 64 64 65 65 65 65 65 66 66 67 67 66 66 66 66 66 66 66 66 66 66 66 66 66 66 66 66 65 66 66 66 66 66 67 66 66 66 65 64 64 65 65 63 62 62 63 63 62 62 62 60 61 61 62 62 61 60 59 58 57 58 58
14 15 13 11 10 10 6 6 13 14 11 8 11 15 17 45 52 55 57 59 58 57 57 58 58 58 59 60 60 60 61 61 62 63 63 64 64 64 64 65 65 65 66 67 66 66 66 66 65 66 66 66 66 66 65 65 65 65 65 65 65 64 64 64 65 65 64 63 63 63 63 64 63 63 63 63 63 63 62 61 61 61 61 61 61 60 59 60 61 61 60 59 59 57 57 57 58
11 13 12 10 9 10 11 9 12 14 11 10 10 14 18 38 52 55 56 58 58 57 55 57 57 58 59 59 60 60 61 61 62 63 63 63 63 63 64 64 64 65 65 65 65 65 64 64 65 65 66 66 65 65 65 65 64 64 64 64 64 64 63 63 62 62 61 61 61 61 61 61 62 61 61 62 62 61 60 60 60 60 60 60 60 60 60 60 60 59 58 58 57 57 55 57 58
11 12 11 10 8 7 11 8 10 12 14 11 19 19 21 37 51 54 56 57 56 56 56 57 57 58 59 59 59 59 60 62 62 62 63 63 63 63 63 64 64 63 64 64 65 65 65 65 65 65 65 65 65 65 65 65 65 65 65 64 64 63 62 61 60 59 59 59 59 59 59 59 60 60 60 60 60 59 60 59 60 59 59 59 59 59 58 58 59 59 58 55 55 55 54 55 55
13 10 11 10 9 8 11 9 10 10 11 13 25 19 22 37 50 54 55 55 55 56 56 57 57 57 58 59 59 60 60 61 62 62 62 62 62 63 63 63 64 64 64 64 64 65 65 64 65 65 65 65 65 65 65 65 66 66 65 64 63 62 61 60 58 58 58 57 58 58 58 58 58 57 58 59 59 59 59 59 59 58 58 58 57 57 57 57 57 58 57 55 53 54 52 52 54
15 12 12 9 8 7 8 9 43 40 12 30 36 21 39 47 52 53 54 54 55 57 57 58 59 58 58 59 59 59 60 60 60 61 61 62 62 62 63 63 63 64 63 64 64 64 64 65 65 65 65 65 65 65 65 65 65 65 64 63 63 61 58 58 57 56 56 57 56 57 57 58 57 58 57 57 57 58 59 58 58 57 57 57 56 55 55 55 56 56 56 56 55 51 49 49 52
18 14 11 10 7 7 6 16 44 46 44 43 36 34 39 46 47 50 53 55 55 54 56 57 58 60 59 60 60 60 60 60 60 61 61 61 62 61 62 63 63 63 64 64 64 64 64 64 65 65 64 65 65 65 65 65 63 62 61 61 60 59 58 57 56 55 56 56 56 56 56 56 56 56 57 56 56 57 57 57 56 56 56 56 55 54 54 54 54 54 55 55 55 51 48 49 49
17 16 13 9 8 7 24 41 31 25 33 42 24 29 28 40 45 47 50 53 53 54 54 55 57 59 60 60 60 60 60 60 60 61 61 62 62 62 62 62 62 63 63 63 64 64 64 64 64 64 65 65 65 65 65 64 63 61 60 59 58 57 56 56 55 55 55 55 53 55 56 55 55 56 55 55 55 55 56 56 56 53 55 54 54 54 54 54 54 54 54 54 53 54 50 47 46
17 16 16 12 23 29 38 35 19 22 15 30 42 12 10 47 44 46 50 51 52 54 54 55 57 58 59 59 59 59 60 60 61 62 62 61 62 62 62 62 62 63 63 64 64 64 65 65 64 64 64 64 64 65 65 64 63 62 62 61 60 59 57 56 56 56 55 54 55 55 55 56 55 55 55 55 55 55 55 55 55 54 53 54 54 53 53 53 52 53 52 52 51 52 52 48 47
12 16 16 13 11 22 40 31 15 32 45 43 42 29 15 30 39 45 48 50 50 52 53 54 56 57 58 59 59 59 59 60 60 61 62 62 62 62 62 62 63 64 64 64 64 64 64 64 64 64 64 64 64 65 65 64 63 63 62 61 61 59 58 55 55 55 55 55 54 54 54 54 54 55 55 54 54 54 54 54 54 54 53 52 51 50 51 51 51 51 52 52 50 50 50 47 46
11 15 14 14 13 12 34 33 32 41 32 37 38 40 20 17 37 46 49 47 48 49 51 53 54 56 58 58 59 59 59 60 60 61 61 61 62 62 62 62 62 63 64 63 63 64 64 64 64 64 64 64 64 65 64 63 63 64 62 61 59 58 56 55 54 54 54 55 54 54 53 52 53 54 54 54 54 54 54 53 53 52 52 51 49 49 50 50 51 51 50 49 49 47 47 46 44
14 15 14 14 13 21 19 23 33 40 31 25 34 36 15 11 44 45 48 46 46 48 49 52 54 55 56 57 58 59 59 60 60 61 61 62 62 62 62 62 62 62 63 64 64 64 64 64 64 64 64 64 64 64 64 63 63 62 62 61 58 56 55 55 54 54 54 54 54 54 53 53 52 53 54 53 53 53 53 52 51 51 52 49 48 49 49 49 49 49 48 48 47 46 45 44 44
14 15 13 12 12 14 27 35 33 39 29 22 27 37 22 11 39 44 45 44 45 47 49 51 53 54 55 57 58 59 59 59 60 61 61 62 62 62 62 62 63 63 63 63 63 63 64 64 64 63 64 64 64 64 63 63 63 62 61 60 59 57 56 54 53 53 53 53 53 53 52 52 52 53 53 53 53 52 53 52 51 50 51 51 48 47 48 46 47 47 46 46 46 45 42 43 43
14 7 6 11 15 15 16 20 34 26 25 26 33 37 32 20 27 41 46 48 47 48 48 50 52 53 55 56 57 58 59 59 60 61 61 61 61 62 62 62 62 63 63 63 63 63 63 63 63 63 63 63 64 64 63 62 62 61 61 60 58 57 56 55 54 53 53 53 53 51 51 51 52 52 52 51 52 52 52 51 51 50 50 50 49 48 48 46 45 44 43 43 43 44 44 43 43
7 9 8 10 11 13 12 16 23 23 15 19 30 37 35 29 27 39 45 46 46 48 49 50 51 52 54 54 56 58 58 59 60 60 61 61 61 61 61 62 62 62 62 63 63 63 63 63 63 63 63 63 63 63 62 62 61 61 59 59 58 57 56 55 55 54 53 52 51 50 51 50 50 51 50 50 51 52 51 51 51 50 49 50 49 47 47 46 44 42 42 42 42 42 41 42 40
7 10 8 8 9 10 10 10 13 17 15 19 37 36 27 32 33 36 41 46 47 48 49 50 51 52 53 55 56 57 58 58 59 60 60 61 61 61 61 61 62 62 63 62 63 63 63 63 63 63 62 63 63 63 62 61 61 60 59 58 57 56 55 55 54 53 53 52 51 51 51 51 51 51 50 50 50 50 50 51 51 50 49 48 48 47 46 44 44 39 42 41 41 41 42 42 41
7 9 6 10 10 9 12 8 10 10 11 26 36 31 26 26 22 39 38 44 48 48 48 50 52 52 55 55 55 56 57 58 59 60 60 61 61 61 61 61 62 62 63 62 62 62 62 62 62 62 62 62 63 62 62 61 60 59 58 58 57 56 55 54 53 53 52 50 50 51 51 51 50 50 49 50 50 50 50 50 50 50 49 49 48 47 45 45 44 41 41 42 40 40 40 40 40
9 10 11 13 12 18 9 14 13 17 23 31 36 30 30 25 36 38 43 45 46 48 49 50 50 52 53 55 55 56 56 57 58 60 60 60 61 62 61 61 62 62 62 62 62 62 61 61 62 62 62 62 62 62 62 61 60 59 58 58 57 56 54 53 52 51 51 51 51 51 51 51 50 49 49 49 50 50 50 49 48 48 48 48 47 45 43 42 43 41 40 41 40 40 40 39 39
10 9 11 8 15 17 21 22 27 25 22 14 34 34 34 36 34 44 45 42 44 46 47 49 50 52 54 54 55 55 56 57 58 59 60 60 61 61 61 62 62 62 62 62 61 61 61 61 61 61 61 62 62 62 61 61 59 58 58 57 56 55 54 53 51 51 51 51 51 51 50 49 50 49 49 49 49 49 49 48 48 48 48 47 46 45 43 43 42 41 41 40 40 40 39 39 39
9 9 9 15 16 19 21 10 18 13 10 15 32 25 28 20 18 45 46 43 43 45 46 48 51 53 54 54 56 56 56 56 58 59 60 60 61 61 61 61 62 61 61 61 61 62 61 61 61 61 61 60 61 61 60 60 59 58 57 56 56 54 53 52 51 50 50 50 50 50 49 48 48 48 48 49 49 49 48 48 48 48 48 47 46 43 42 42 42 41 41 39 39 40 39 39 39
7 7 12 9 15 11 20 21 14 11 11 12 26 29 28 27 18 38 41 43 46 46 47 48 50 52 53 54 56 56 57 57 58 59 60 61 61 61 61 61 62 61 61 61 61 61 61 60 60 60 60 60 60 60 60 59 58 58 57 56 54 52 51 50 50 49 50 49 49 49 48 48 48 48 48 48 48 47 47 47 47 47 47 46 45 44 43 43 41 41 41 39 40 39 38 38 39
9 11 10 16 15 15 14 19 21 17 11 18 12 23 19 30 26 34 34 43 44 46 48 49 50 52 53 54 56 57 57 57 58 59 60 61 61 61 61 61 61 60 60 59 59 59 60 60 59 60 60 59 59 59 59 58 57 56 55 54 52 50 49 49 49 49 49 48 47 47 47 48 48 47 47 47 46 46 46 46 46 46 46 45 44 44 43 43 42 41 40 38 40 39 36 36 37
8 8 8 13 18 18 13 22 13 12 15 12 10 16 20 32 34 34 35 38 44 48 49 50 50 52 54 55 56 57 57 57 58 59 60 61 61 62 61 61 61 61 59 59 59 58 59 59 59 59 59 58 58 58 58 57 56 54 53 53 52 50 50 49 48 49 49 48 48 47 46 46 45 46 46 46 46 45 45 45 45 44 44 44 43 44 43 42 41 40 39 39 39 37 36 36 36
8 9 9 8 10 11 8 11 17 14 18 17 16 10 23 34 39 36 30 37 41 47 48 50 50 52 54 56 57 57 57 58 58 59 60 61 61 62 61 61 61 60 59 58 59 59 58 57 57 57 58 57 57 56 55 55 54 53 52 51 51 50 49 48 49 49 49 47 46 46 46 45 46 45 44 44 45 46 46 45 44 44 44 42 42 42 42 41 39 39 40 41 40 37 36 36 36